Home > Weather > Summerside > Past weeks

Flag for Canada Weather for the Past 2 Weeks in Summerside, Prince Edward Island, Canada

Now
36 °F

Chilly.


Feels Like: 32 °F
Forecast: 34 / 51 °F
Wind: 6 mph from Southeast

Location: Summerside Airport

Current Time: May 1, 2016 at 1:14:19 AM

Latest Report: Apr 30, 2016 at 11:00 PM


Visibility: N/A

Pressure: 30.25 "Hg

Humidity: 62%

Dew Point: 24 °F

Location of SummersideLocation

Historic Weather in Summerside — Graph

°F

Summerside Temperature Yesterday

Maximum temperature yesterday: 52 °F (at 2:00 PM)
Minimum temperature yesterday: 29 °F (at 2:00 AM)
Average temperature yesterday: 41 °F

High & Low Weather Summary for the Past Weeks

 TemperatureHumidityPressure
High62 °F (Apr 21, 3:00 PM)96% (Apr 17, 4:00 AM)30.58 "Hg (Apr 17, 4:00 AM)
Low24 °F (Apr 19, 3:00 AM)21% (Apr 29, 4:00 PM)29.69 "Hg (Apr 21, 4:00 PM)
Average37 °F66%30.00 "Hg
* Reported Midnight between Apr 15 and Apr 16 — Apr 30 11:00 PM, Summerside, Weather by CustomWeather, © 2016

Note: Actual official high and low records may vary slightly from our data, if they occured in-between our weather recording intervals... More about our weather records

Advertising

Summerside Weather History for the Previous 24 Hours

Scroll right to see more
 ConditionsComfort  
Time TempWeatherWind HumidityBarometerVisibility
11:00 PM
Sat, Apr 30
36 °FChilly.6 mph62%30.25 "HgN/A
10:00 PM40 °FChilly.9 mph48%30.24 "HgN/A
9:00 PM41 °FQuite cool.6 mph51%30.23 "HgN/A
8:00 PM45 °FCool.8 mph41%30.22 "HgN/A
7:00 PM46 °FCool.13 mph36%30.21 "HgN/A
6:00 PM48 °FCool.12 mph36%30.20 "HgN/A
5:00 PM47 °FCool.16 mph49%30.19 "HgN/A
4:00 PM51 °FCool.12 mph36%30.19 "HgN/A
3:00 PM51 °FCool.8 mph26%30.20 "HgN/A
2:00 PM52 °FCool.8 mph31%30.20 "HgN/A
1:00 PM47 °FCool.8 mph30%30.20 "HgN/A
12:00 PM47 °FCool.9 mph40%30.20 "HgN/A
11:00 AM45 °FCool.3 mph43%30.20 "HgN/A
9:00 AM41 °FQuite cool.5 mph46%30.19 "HgN/A
8:00 AM37 °FChilly.5 mph54%30.19 "HgN/A
7:00 AM33 °FChilly.3 mph66%30.17 "HgN/A
6:00 AM29 °FChilly.5 mph73%30.16 "HgN/A
5:00 AM31 °FChilly.6 mph70%30.14 "HgN/A
4:00 AM31 °FChilly.7 mph68%30.13 "HgN/A
2:00 AM29 °FChilly.6 mph68%30.11 "HgN/A
1:00 AM33 °FChilly.2 mph58%30.11 "HgN/A
Weather by CustomWeather, © 2016

See weather overviewHow to use our weather pages